Millington, TN

3:09 AM CDT on August 19, 2017 (GMT -0500)
Millington Municipal

Weather History for KNQA - May, 2013

Change the Weather History Date:

Monday, May 6, 2013

  Actual Average Record
Temperature  
Mean Temperature 58 °F -  
Max Temperature 64 °F 77 °F 95 °F (2012)
Min Temperature 53 °F 59 °F 42 °F (2005)
Degree Days  
Heating Degree Days 6    
Growing Degree Days 8 (Base 50)    
Moisture  
Dew Point 55 °F    
Average Humidity 90    
Maximum Humidity 100    
Minimum Humidity 73    
Precipitation  
Precipitation 0.00 in - - ()
Sea Level Pressure  
Sea Level Pressure 29.90 in    
Wind  
Wind Speed 5 mph (WNW)    
Max Wind Speed 12 mph    
Max Gust Speed -    
Visibility 10 miles    
Events      
Averages and records for this station are not official NWS values.
T = Trace of Precipitation, MM = Missing Value Source: NWS Daily Summary

Daily Weather History Graph

Daily Weather History Graph

Search for Another Location

Airport or City:

Trip Planner

Search our weather history database for the weather conditions in past years. The results will help you decide how hot, cold, wet, or windy it might be!

Date:

Astronomy

May. 06, 2013 Rise Set
Actual Time 6:02 AM CDT 7:49 PM CDT
Civil Twilight 5:35 AM CDT 8:17 PM CDT
Nautical Twilight 5:01 AM CDT 8:51 PM CDT
Astronomical Twilight 4:26 AM CDT 9:26 PM CDT
Moon 3:57 AM CDT (5/6) 4:55 PM CDT (5/6)
Length of Visible Light 14h 42m
Length of Day
13h 47m
Waning Crescent, 11% of the Moon is Illuminated
May 6
Waning Crescent
May 9
New
May 17
First Quarter
May 24
Full
May 31
Last Quarter

Hourly Weather History & Observations

Time (CDT) Temp. Dew Point Humidity Pressure Visibility Wind Dir Wind Speed Gust Speed Precip Events Conditions
12:55 AM 53.6 °F 51.8 °F 94% 29.89 in 10.0 mi WNW 6.9 mph - N/A   Overcast
1:55 AM 53.6 °F 53.6 °F 100% 29.86 in 10.0 mi West 5.8 mph - N/A   Overcast
2:55 AM 55.4 °F 53.6 °F 94% 29.87 in 10.0 mi NW 4.6 mph - N/A   Overcast
3:15 AM 55.4 °F 53.6 °F 94% 29.87 in 10.0 mi WNW 3.5 mph - N/A   Overcast
3:35 AM 55.4 °F 53.6 °F 94% 29.87 in 10.0 mi WNW 5.8 mph - N/A   Overcast
3:55 AM 55.4 °F 53.6 °F 94% 29.86 in 10.0 mi NW 3.5 mph - N/A   Overcast
4:15 AM 55.4 °F 53.6 °F 94% 29.87 in 10.0 mi WNW 3.5 mph - N/A   Overcast
4:35 AM 53.6 °F 53.6 °F 100% 29.87 in 10.0 mi West 3.5 mph - N/A   Overcast
4:55 AM 55.4 °F 53.6 °F 94% 29.87 in 10.0 mi Calm Calm - N/A   Overcast
5:15 AM 55.4 °F 53.6 °F 94% 29.87 in 10.0 mi Calm Calm - N/A   Overcast
5:35 AM 55.4 °F 53.6 °F 94% 29.87 in 10.0 mi West 4.6 mph - N/A   Overcast
5:55 AM 55.4 °F 53.6 °F 94% 29.87 in 10.0 mi WSW 4.6 mph - N/A   Overcast
6:55 AM 55.4 °F 53.6 °F 94% 29.88 in 10.0 mi WNW 6.9 mph - N/A   Overcast
7:55 AM 55.4 °F 55.4 °F 100% 29.89 in 1.8 mi WNW 6.9 mph - N/A   Overcast
8:55 AM 55.4 °F 55.4 °F 100% 29.90 in 5.0 mi Variable 6.9 mph - N/A   Overcast
9:55 AM 57.2 °F 55.4 °F 94% 29.90 in 10.0 mi WNW 11.5 mph - N/A   Mostly Cloudy
10:55 AM 59.0 °F 55.4 °F 88% 29.91 in 10.0 mi NW 9.2 mph - N/A   Overcast
11:55 AM 59.0 °F 53.6 °F 82% 29.91 in 10.0 mi NW 10.4 mph - N/A   Overcast
12:55 PM 62.6 °F 55.4 °F 77% 29.91 in 10.0 mi Variable 5.8 mph - N/A   Overcast
1:55 PM 62.6 °F 55.4 °F 77% 29.91 in 10.0 mi NW 5.8 mph - N/A   Overcast
2:55 PM 64.4 °F 55.4 °F 73% 29.91 in 10.0 mi NW 9.2 mph - N/A   Overcast
3:55 PM 62.6 °F 55.4 °F 77% 29.90 in 10.0 mi NW 6.9 mph - N/A   Overcast
4:55 PM 62.6 °F 57.2 °F 82% 29.90 in 10.0 mi Calm Calm - N/A   Overcast
5:55 PM 64.4 °F 57.2 °F 77% 29.91 in 10.0 mi NW 3.5 mph - N/A   Overcast
6:55 PM 64.4 °F 57.2 °F 77% 29.91 in 10.0 mi Calm Calm - N/A   Mostly Cloudy
7:55 PM 62.6 °F 57.2 °F 82% 29.93 in 10.0 mi West 3.5 mph - N/A   Mostly Cloudy
8:55 PM 59.0 °F 57.2 °F 94% 29.94 in 10.0 mi Calm Calm - N/A   Mostly Cloudy
9:55 PM 57.2 °F 55.4 °F 94% 29.96 in 10.0 mi West 4.6 mph - N/A   Scattered Clouds
10:55 PM 57.2 °F 57.2 °F 100% 29.96 in 10.0 mi NW 3.5 mph - N/A   Scattered Clouds
11:55 PM 57.2 °F 55.4 °F 94% 29.96 in 10.0 mi WNW 3.5 mph - N/A   Scattered Clouds